Find Starlink 35220

NORAD ID: 65661 Int'l Des: 2025-211 Owner: SPXS Country: US Constellation: starlink operational
LEOCIRCULARRETROGRADESSO

現在のビュー

3D地球を読み込み中...

About Starlink 35220

Starlink 35220 (NORAD 65661) is a starlink constellation satellite (v2 mini) launched Sep 19, 2025 by SPXS of US. It operates in LEO, CIRCULAR, RETROGRADE, SSO orbit with a mass of 575.00 kg.

次回通過

Passes for default location (London). Set your location on the main map for personalized predictions.

高度履歴

Loading altitude history...

軌道要素

1 65661U 25211K 26262.84142063 .00016989 00000-0 52727-3 0 9990
2 65661 97.2842 303.0986 0000295 261.6196 98.5013 15.33452402 56426
Epoch: Sep 19, 2026 • Age: 20 hours

現在のステータス

高度 471.2 km
遠地点 / 近地点 N/A
速度 7.63 km/s
衛星直下点 -13.20°S, 58.63°E
打ち上げ日 Sep 19, 2025
運用期間 0.9 years
タイプ internet

技術仕様

分類 Payload
質量 575.00 kg
乾燥質量 530.00 kg
長さ 0.30 m
スパン 29.00 m
形状 ? Box + pan
製造者 SPXS
バスタイプ Starlink V2MO
フェーズステータス In Orbit
所有者/国 SPXS/US

Most Searched